Retour au catalogue

STARLINK-35306

ActifCommunicationsVLEO
NORAD 67361·PAYLOAD·🇺🇸 United States

Lancé Jan 9, 2026 depuis Cape Canaveral Space Force Station

Loading…

Prochains Passages (prochaines 24 heures)

TLE

FraisSource: CelesTrak SupGP

Époque: Sep 15, 2026, 03:58 UTC

1 67361C 26003AD  26258.16576389 -.00045398  00000+0 -16445-2 0  2582
2 67361  42.9992 236.9323 0001253 268.8115  54.3624 15.27596672    15

Suivez STARLINK-35306 en temps réel avec AllMySat

Download on the App Store